Vienna International/Schwechat

Airport
ICAO code: 
LOWW
IATA Code: 
VIE
Summary
ICAO Region: 
EUR
Territory: 
Location: 
Schwechat, Vienna
Serving: 
Vienna
Elevation: 
600 ft
Coordinates: 
Aerial View: 
48° 6' 37.073" N, 16° 34' 10.921" E
Metar
Observation
LOWW 262250Z 31015KT 9999 OVC019 02/M02 Q1027 NOSIG
Station
Wien / Schwechat-Flughafen
Date/Time
2022-01-26 22:50:00
Wind direction
310°
Wind speed
15 kts
Lowest cloud amount
overcast
Temperature
2°C
Dew point
-2°C
Humidity
74%
QNH
1027 hPa
Weather condition
n/a

International airport serving Vienna, capital of Austria.

Climatology

Humid Continental climate (Köppen climate classification Dfb)

Runways

Designator Length Width Surface Rops
11/29 3500 45 ASP Yes/Yes
16/34 3600 45 ASP Yes/Yes
Airport map: 
Aerial View: 

Accidents and Serious Incidents at or in the vicinity of LOWW

SKYbrary Partners:

Safety knowledge contributed by: